| time (UTC) | temp C | wind direction | speed KPH | gust KPH | rain 1hr cm | rain 24hr cm | rain mn cm | humidity % | barometer mb |
| 20260507045233 | 17 | 241 | 0.0 | 0.0 | 0.00 | 0.00 | 0.00 | 78 | 1016.5 |
| 20260507045229 | 16 | 241 | 0.0 | 0.0 | 0.00 | 0.00 | 0.00 | 78 | 1016.5 |
| 20260507044227 | 17 | 241 | 0.0 | 0.0 | 0.00 | 0.00 | 0.00 | 78 | 1016.5 |
| 20260507043726 | 17 | 241 | 0.0 | 0.0 | 0.00 | 0.00 | 0.00 | 78 | 1016.6 |
| 20260507043228 | 17 | 241 | 0.0 | 0.0 | 0.00 | 0.00 | 0.00 | 77 | 1016.6 |
| 20260507042728 | 17 | 241 | 0.0 | 0.0 | 0.00 | 0.00 | 0.00 | 77 | 1016.5 |
| 20260507042347 | 17 | 241 | 0.0 | 1.6 | 0.00 | 0.00 | 0.00 | 77 | 1016.5 |
| 20260507042232 | 17 | 241 | 0.0 | 0.0 | 0.00 | 0.00 | 0.00 | 77 | 1016.5 |
| 20260507042227 | 17 | 241 | 0.0 | 0.0 | 0.00 | 0.00 | 0.00 | 77 | 1016.5 |
| 20260507040728 | 17 | 241 | 0.0 | 1.6 | 0.00 | 0.00 | 0.00 | 76 | 1016.5 |
| 20260507040226 | 17 | 241 | 0.0 | 3.2 | 0.00 | 0.00 | 0.00 | 76 | 1016.4 |
| 20260507035730 | 17 | 241 | 1.6 | 4.8 | 0.00 | 0.00 | 0.00 | 75 | 1016.4 |
| 20260507035726 | 17 | 241 | 0.0 | 4.8 | 0.00 | 0.00 | 0.00 | 76 | 1016.4 |
| 20260507034727 | 17 | 241 | 1.6 | 4.8 | 0.00 | 0.00 | 0.00 | 76 | 1016.2 |
| 20260507034225 | 17 | 241 | 0.0 | 0.0 | 0.00 | 0.00 | 0.00 | 75 | 1016.1 |
| 20260507033729 | 17 | 241 | 0.0 | 6.4 | 0.00 | 0.00 | 0.00 | 75 | 1016.1 |
| 20260507033225 | 17 | 241 | 0.0 | 6.4 | 0.00 | 0.00 | 0.00 | 75 | 1016.1 |
| 20260507032725 | 17 | 240 | 1.6 | 3.2 | 0.00 | 0.00 | 0.00 | 74 | 1016.1 |
| 20260507032226 | 18 | 240 | 0.0 | 1.6 | 0.00 | 0.00 | 0.00 | 74 | 1016.1 |
| 20260507031726 | 18 | 240 | 0.0 | 3.2 | 0.00 | 0.00 | 0.00 | 74 | 1015.9 |
| 20260507031224 | 18 | 240 | 3.2 | 3.2 | 0.00 | 0.00 | 0.00 | 74 | 1015.9 |
| 20260507030723 | 18 | 240 | 3.2 | 3.2 | 0.00 | 0.00 | 0.00 | 74 | 1015.8 |
| 20260507030222 | 18 | 240 | 1.6 | 6.4 | 0.00 | 0.00 | 0.00 | 73 | 1015.8 |
| 20260507025723 | 18 | 240 | 1.6 | 8.0 | 0.00 | 0.00 | 0.00 | 73 | 1015.8 |
| 20260507025229 | 18 | 283 | 4.8 | 6.4 | 0.00 | 0.00 | 0.00 | 72 | 1015.6 |
| 20260507025224 | 18 | 240 | 4.8 | 8.0 | 0.00 | 0.00 | 0.00 | 72 | 1015.8 |
| 20260507024221 | 18 | 221 | 3.2 | 8.0 | 0.00 | 0.00 | 0.00 | 71 | 1015.6 |
| 20260507023721 | 18 | 281 | 4.8 | 8.0 | 0.00 | 0.00 | 0.00 | 70 | 1015.6 |
| 20260507023222 | 18 | 254 | 0.0 | 11.3 | 0.00 | 0.00 | 0.00 | 69 | 1015.5 |
| 20260507022720 | 18 | 228 | 3.2 | 11.3 | 0.00 | 0.00 | 0.00 | 68 | 1015.5 |
| 20260507022221 | 18 | 223 | 6.4 | 9.7 | 0.00 | 0.00 | 0.00 | 68 | 1015.4 |
| 20260507021722 | 18 | 283 | 6.4 | 9.7 | 0.00 | 0.00 | 0.00 | 69 | 1015.4 |
| 20260507021221 | 19 | 269 | 6.4 | 9.7 | 0.00 | 0.00 | 0.00 | 69 | 1015.4 |
| 20260507020722 | 19 | 241 | 4.8 | 9.7 | 0.00 | 0.00 | 0.00 | 69 | 1015.4 |
| 20260507020221 | 19 | 223 | 4.8 | 9.7 | 0.00 | 0.00 | 0.00 | 68 | 1015.3 |
| 20260507015722 | 19 | 255 | 4.8 | 17.7 | 0.00 | 0.00 | 0.00 | 68 | 1015.3 |
| 20260507015220 | 20 | 217 | 4.8 | 17.7 | 0.00 | 0.00 | 0.00 | 67 | 1015.3 |
| 20260507014721 | 20 | 241 | 3.2 | 11.3 | 0.00 | 0.00 | 0.00 | 67 | 1015.3 |
| 20260507014221 | 20 | 255 | 4.8 | 11.3 | 0.00 | 0.00 | 0.00 | 67 | 1015.2 |
| 20260507013721 | 20 | 245 | 4.8 | 9.7 | 0.00 | 0.00 | 0.00 | 66 | 1015.3 |
| 20260507013219 | 20 | 257 | 4.8 | 14.5 | 0.00 | 0.00 | 0.00 | 65 | 1015.2 |
| 20260507012720 | 20 | 216 | 9.7 | 14.5 | 0.00 | 0.00 | 0.00 | 65 | 1015.2 |
| 20260507012223 | 20 | 244 | 6.4 | 11.3 | 0.00 | 0.00 | 0.00 | 64 | 1015.0 |
| 20260507012217 | 20 | 220 | 6.4 | 11.3 | 0.00 | 0.00 | 0.00 | 65 | 1015.1 |
| 20260507011220 | 20 | 275 | 3.2 | 14.5 | 0.00 | 0.00 | 0.00 | 64 | 1015.0 |
| 20260507010719 | 20 | 265 | 9.7 | 14.5 | 0.00 | 0.00 | 0.00 | 63 | 1015.0 |
| 20260507010217 | 20 | 200 | 4.8 | 11.3 | 0.00 | 0.00 | 0.00 | 64 | 1015.0 |
| 20260507005719 | 21 | 290 | 8.0 | 14.5 | 0.00 | 0.00 | 0.00 | 64 | 1015.0 |
| 20260507005220 | 21 | 293 | 6.4 | 14.5 | 0.00 | 0.00 | 0.00 | 62 | 1015.0 |
| 20260507004719 | 21 | 224 | 3.2 | 16.1 | 0.00 | 0.00 | 0.00 | 62 | 1015.0 |
| 20260507004218 | 21 | 209 | 4.8 | 16.1 | 0.00 | 0.00 | 0.00 | 62 | 1015.0 |
| 20260507003724 | 21 | 258 | 6.4 | 16.1 | 0.00 | 0.00 | 0.00 | 61 | 1015.0 |
| 20260507003718 | 21 | 264 | 9.7 | 16.1 | 0.00 | 0.00 | 0.00 | 62 | 1015.0 |
| 20260507002718 | 21 | 265 | 9.7 | 16.1 | 0.00 | 0.00 | 0.00 | 61 | 1015.0 |
| 20260507002218 | 21 | 237 | 9.7 | 14.5 | 0.00 | 0.00 | 0.00 | 61 | 1014.9 |
| 20260507001716 | 21 | 243 | 8.0 | 14.5 | 0.00 | 0.00 | 0.00 | 59 | 1014.9 |
| 20260507001217 | 22 | 248 | 6.4 | 14.5 | 0.00 | 0.00 | 0.00 | 59 | 1014.9 |
| 20260507000717 | 22 | 254 | 4.8 | 11.3 | 0.00 | 0.00 | 0.00 | 58 | 1014.9 |
| 20260507000222 | 21 | 155 | 4.8 | 11.3 | 0.00 | 0.00 | 0.00 | 59 | 1014.9 |
| 20260506235716 | 21 | 228 | 4.8 | 11.3 | 0.00 | 0.00 | 0.00 | 59 | 1014.9 |
| 20260506235217 | 21 | 261 | 4.8 | 17.7 | 0.00 | 0.00 | 0.00 | 60 | 1014.9 |
| 20260506234715 | 22 | 213 | 8.0 | 17.7 | 0.00 | 0.00 | 0.00 | 59 | 1014.9 |
| 20260506234216 | 22 | 196 | 6.4 | 14.5 | 0.00 | 0.00 | 0.00 | 59 | 1014.8 |
| 20260506233722 | 22 | 289 | 9.7 | 16.1 | 0.00 | 0.00 | 0.00 | 57 | 1014.9 |
| 20260506233716 | 22 | 248 | 6.4 | 16.1 | 0.00 | 0.00 | 0.00 | 58 | 1014.8 |
| 20260506232716 | 22 | 286 | 9.7 | 16.1 | 0.00 | 0.00 | 0.00 | 56 | 1014.8 |
| 20260506232215 | 22 | 248 | 4.8 | 14.5 | 0.00 | 0.00 | 0.00 | 57 | 1014.9 |
| 20260506231714 | 22 | 305 | 4.8 | 16.1 | 0.00 | 0.00 | 0.00 | 57 | 1015.0 |
| 20260506231214 | 22 | 288 | 9.7 | 16.1 | 0.00 | 0.00 | 0.00 | 55 | 1014.9 |
| 20260506230714 | 23 | 159 | 6.4 | 16.1 | 0.00 | 0.00 | 0.00 | 54 | 1014.9 |
| 20260506230219 | 23 | 265 | 3.2 | 17.7 | 0.00 | 0.00 | 0.00 | 53 | 1014.9 |
| 20260506225720 | 23 | 266 | 6.4 | 17.7 | 0.00 | 0.00 | 0.00 | 51 | 1015.0 |
| 20260506225715 | 23 | 283 | 9.7 | 17.7 | 0.00 | 0.00 | 0.00 | 52 | 1015.1 |
| 20260506224714 | 23 | 245 | 9.7 | 17.7 | 0.00 | 0.00 | 0.00 | 50 | 1015.1 |
| 20260506224214 | 23 | 193 | 3.2 | 14.5 | 0.00 | 0.00 | 0.00 | 49 | 1015.2 |
| 20260506223713 | 23 | 220 | 3.2 | 22.5 | 0.00 | 0.00 | 0.00 | 49 | 1015.2 |
| 20260506223213 | 23 | 281 | 9.7 | 22.5 | 0.00 | 0.00 | 0.00 | 48 | 1015.3 |
| 20260506222713 | 23 | 237 | 6.4 | 19.3 | 0.00 | 0.00 | 0.00 | 48 | 1015.3 |
| 20260506222218 | 23 | 223 | 4.8 | 11.3 | 0.00 | 0.00 | 0.00 | 48 | 1015.3 |
| 20260506222212 | 23 | 292 | 8.0 | 19.3 | 0.00 | 0.00 | 0.00 | 48 | 1015.2 |
| 20260506221834 | 23 | 243 | 4.8 | 17.7 | 0.00 | 0.00 | 0.00 | 49 | 1015.4 |
| 20260506220712 | 23 | 296 | 9.7 | 17.7 | 0.00 | 0.00 | 0.00 | 48 | 1015.5 |
| 20260506220212 | 23 | 281 | 6.4 | 17.7 | 0.00 | 0.00 | 0.00 | 49 | 1015.5 |
| 20260506215713 | 23 | 234 | 8.0 | 17.7 | 0.00 | 0.00 | 0.00 | 49 | 1015.6 |
| 20260506215212 | 23 | 310 | 4.8 | 16.1 | 0.00 | 0.00 | 0.00 | 50 | 1015.6 |
| 20260506214828 | 23 | 224 | 6.4 | 14.5 | 0.00 | 0.00 | 0.00 | 49 | 1015.7 |
| 20260506214717 | 23 | 244 | 8.0 | 14.5 | 0.00 | 0.00 | 0.00 | 50 | 1015.8 |
| 20260506214713 | 23 | 251 | 6.4 | 16.1 | 0.00 | 0.00 | 0.00 | 50 | 1015.7 |
| 20260506213213 | 23 | 276 | 4.8 | 11.3 | 0.00 | 0.00 | 0.00 | 50 | 1015.9 |
| 20260506212712 | 23 | 244 | 6.4 | 17.7 | 0.00 | 0.00 | 0.00 | 51 | 1015.9 |
| 20260506212215 | 23 | 299 | 6.4 | 14.5 | 0.00 | 0.00 | 0.00 | 50 | 1016.0 |
| 20260506212211 | 23 | 228 | 4.8 | 17.7 | 0.00 | 0.00 | 0.00 | 50 | 1016.0 |
| 20260506211211 | 23 | 238 | 3.2 | 9.7 | 0.00 | 0.00 | 0.00 | 52 | 1016.0 |
| 20260506210711 | 22 | 240 | 3.2 | 16.1 | 0.00 | 0.00 | 0.00 | 54 | 1016.1 |
| 20260506210216 | 22 | 305 | 6.4 | 14.5 | 0.00 | 0.00 | 0.00 | 54 | 1016.2 |
| 20260506210211 | 22 | 272 | 8.0 | 16.1 | 0.00 | 0.00 | 0.00 | 53 | 1016.2 |
| 20260506205211 | 22 | 290 | 6.4 | 17.7 | 0.00 | 0.00 | 0.00 | 54 | 1016.2 |
| 20260506204710 | 22 | 296 | 9.7 | 17.7 | 0.00 | 0.00 | 0.00 | 54 | 1016.3 |
| 20260506204210 | 22 | 258 | 3.2 | 14.5 | 0.00 | 0.00 | 0.00 | 56 | 1016.3 |
| 20260506203710 | 22 | 261 | 8.0 | 14.5 | 0.00 | 0.00 | 0.00 | 55 | 1016.3 |
| 20260506203210 | 22 | 302 | 6.4 | 11.3 | 0.00 | 0.00 | 0.00 | 55 | 1016.3 |
| 20260506202709 | 22 | 230 | 4.8 | 16.1 | 0.00 | 0.00 | 0.00 | 56 | 1016.4 |
| 20260506202208 | 22 | 223 | 6.4 | 20.9 | 0.00 | 0.00 | 0.00 | 57 | 1016.4 |
| 20260506201709 | 22 | 195 | 4.8 | 20.9 | 0.00 | 0.00 | 0.00 | 59 | 1016.5 |
| 20260506201209 | 22 | 274 | 6.4 | 16.1 | 0.00 | 0.00 | 0.00 | 57 | 1016.6 |
| 20260506200707 | 22 | 223 | 6.4 | 16.1 | 0.00 | 0.00 | 0.00 | 57 | 1016.7 |
| 20260506200209 | 22 | 219 | 9.7 | 16.1 | 0.00 | 0.00 | 0.00 | 57 | 1016.7 |
| 20260506195709 | 22 | 224 | 8.0 | 17.7 | 0.00 | 0.00 | 0.00 | 57 | 1016.8 |
| 20260506195208 | 22 | 276 | 4.8 | 17.7 | 0.00 | 0.00 | 0.00 | 58 | 1016.8 |
| 20260506194708 | 22 | 213 | 4.8 | 11.3 | 0.00 | 0.00 | 0.00 | 59 | 1016.8 |
| 20260506194213 | 22 | 216 | 9.7 | 16.1 | 0.00 | 0.00 | 0.00 | 57 | 1016.9 |
| 20260506194208 | 22 | 228 | 6.4 | 16.1 | 0.00 | 0.00 | 0.00 | 58 | 1016.9 |
| 20260506193208 | 22 | 178 | 3.2 | 8.0 | 0.00 | 0.00 | 0.00 | 58 | 1017.0 |
| 20260506192708 | 22 | 168 | 4.8 | 9.7 | 0.00 | 0.00 | 0.00 | 58 | 1016.9 |
| 20260506192208 | 22 | 179 | 3.2 | 9.7 | 0.00 | 0.00 | 0.00 | 60 | 1017.0 |
| 20260506191709 | 22 | 130 | 3.2 | 9.7 | 0.00 | 0.00 | 0.00 | 60 | 1017.1 |
| 20260506191206 | 21 | 290 | 6.4 | 9.7 | 0.00 | 0.00 | 0.00 | 60 | 1017.1 |
| 20260506190712 | 21 | 235 | 6.4 | 11.3 | 0.00 | 0.00 | 0.00 | 62 | 1017.2 |
| 20260506190707 | 21 | 266 | 3.2 | 11.3 | 0.00 | 0.00 | 0.00 | 62 | 1017.1 |
| 20260506185713 | 21 | 276 | 4.8 | 14.5 | 0.00 | 0.00 | 0.00 | 64 | 1017.3 |
| 20260506185707 | 21 | 238 | 6.4 | 14.5 | 0.00 | 0.00 | 0.00 | 60 | 1017.2 |
| 20260506184708 | 21 | 171 | 6.4 | 14.5 | 0.00 | 0.00 | 0.00 | 63 | 1017.3 |
| 20260506184207 | 20 | 199 | 3.2 | 14.5 | 0.00 | 0.00 | 0.00 | 63 | 1017.5 |
| 20260506183706 | 20 | 223 | 3.2 | 11.3 | 0.00 | 0.00 | 0.00 | 63 | 1017.6 |
| 20260506183205 | 21 | 237 | 6.4 | 11.3 | 0.00 | 0.00 | 0.00 | 61 | 1017.6 |
| 20260506182706 | 21 | 254 | 6.4 | 11.3 | 0.00 | 0.00 | 0.00 | 61 | 1017.6 |
| 20260506182205 | 21 | 220 | 3.2 | 8.0 | 0.00 | 0.00 | 0.00 | 61 | 1017.6 |
| 20260506181711 | 21 | 248 | 4.8 | 11.3 | 0.00 | 0.00 | 0.00 | 63 | 1017.6 |
| 20260506181706 | 21 | 202 | 4.8 | 11.3 | 0.00 | 0.00 | 0.00 | 62 | 1017.6 |
| 20260506180704 | 21 | 271 | 4.8 | 8.0 | 0.00 | 0.00 | 0.00 | 62 | 1017.7 |
| 20260506180206 | 21 | 183 | 1.6 | 6.4 | 0.00 | 0.00 | 0.00 | 62 | 1017.7 |
| 20260506175709 | 21 | 224 | 1.6 | 11.3 | 0.00 | 0.00 | 0.00 | 61 | 1017.7 |
| 20260506175705 | 21 | 165 | 3.2 | 11.3 | 0.00 | 0.00 | 0.00 | 62 | 1017.7 |
| 20260506174705 | 21 | 149 | 3.2 | 9.7 | 0.00 | 0.00 | 0.00 | 62 | 1017.6 |
| 20260506174204 | 21 | 182 | 3.2 | 9.7 | 0.00 | 0.00 | 0.00 | 62 | 1017.5 |
| 20260506173710 | 20 | 250 | 1.6 | 3.2 | 0.00 | 0.00 | 0.00 | 63 | 1017.7 |
| 20260506173704 | 21 | 171 | 1.6 | 6.4 | 0.00 | 0.00 | 0.00 | 63 | 1017.6 |
| 20260506173203 | 20 | 250 | 1.6 | 6.4 | 0.00 | 0.00 | 0.00 | 61 | 1017.6 |
| 20260506172203 | 20 | 250 | 3.2 | 6.4 | 0.00 | 0.00 | 0.00 | 64 | 1017.7 |
| 20260506171704 | 19 | 250 | 1.6 | 6.4 | 0.00 | 0.00 | 0.00 | 65 | 1017.7 |
| 20260506171203 | 19 | 56 | 1.6 | 8.0 | 0.00 | 0.00 | 0.00 | 67 | 1017.7 |
| 20260506170701 | 18 | 55 | 1.6 | 8.0 | 0.00 | 0.00 | 0.00 | 69 | 1017.6 |
| 20260506170201 | 18 | 227 | 1.6 | 4.8 | 0.00 | 0.00 | 0.00 | 68 | 1017.7 |
| 20260506165703 | 18 | 283 | 3.2 | 4.8 | 0.00 | 0.00 | 0.00 | 67 | 1017.7 |
| 20260506165201 | 18 | 283 | 1.6 | 4.8 | 0.00 | 0.00 | 0.00 | 67 | 1017.7 |
| 20260506164701 | 18 | 283 | 3.2 | 4.8 | 0.00 | 0.00 | 0.00 | 67 | 1017.7 |
| 20260506164202 | 18 | 206 | 3.2 | 4.8 | 0.00 | 0.00 | 0.00 | 68 | 1017.6 |
| 20260506163701 | 18 | 72 | 1.6 | 4.8 | 0.00 | 0.00 | 0.00 | 70 | 1017.7 |
| 20260506163202 | 17 | 69 | 1.6 | 4.8 | 0.00 | 0.00 | 0.00 | 71 | 1017.7 |
| 20260506162703 | 17 | 97 | 1.6 | 6.4 | 0.00 | 0.00 | 0.00 | 72 | 1017.7 |
| 20260506162201 | 17 | 140 | 3.2 | 6.4 | 0.00 | 0.00 | 0.00 | 72 | 1017.7 |
| 20260506161701 | 17 | 76 | 3.2 | 4.8 | 0.00 | 0.00 | 0.00 | 74 | 1017.6 |
| 20260506161201 | 17 | 203 | 1.6 | 3.2 | 0.00 | 0.00 | 0.00 | 73 | 1017.7 |
| 20260506160702 | 16 | 203 | 1.6 | 3.2 | 0.00 | 0.00 | 0.00 | 75 | 1017.8 |
| 20260506160159 | 16 | 203 | 0.0 | 4.8 | 0.00 | 0.00 | 0.00 | 76 | 1017.7 |
| 20260506155700 | 16 | 203 | 0.0 | 4.8 | 0.00 | 0.00 | 0.00 | 76 | 1017.8 |
| 20260506155202 | 16 | 203 | 0.0 | 4.8 | 0.00 | 0.00 | 0.00 | 77 | 1017.9 |
| 20260506154700 | 16 | 203 | 1.6 | 4.8 | 0.00 | 0.00 | 0.00 | 78 | 1018.0 |
| 20260506154200 | 16 | 252 | 0.0 | 4.8 | 0.00 | 0.00 | 0.00 | 77 | 1017.9 |
| 20260506153700 | 15 | 252 | 3.2 | 4.8 | 0.00 | 0.00 | 0.00 | 79 | 1017.9 |
| 20260506153158 | 15 | 130 | 1.6 | 3.2 | 0.00 | 0.00 | 0.00 | 79 | 1017.9 |
| 20260506152701 | 15 | 130 | 0.0 | 3.2 | 0.00 | 0.00 | 0.00 | 79 | 1017.9 |
| 20260506152200 | 15 | 130 | 0.0 | 3.2 | 0.00 | 0.00 | 0.00 | 79 | 1017.9 |
| 20260506151659 | 15 | 130 | 1.6 | 4.8 | 0.00 | 0.00 | 0.00 | 79 | 1017.8 |
| 20260506151157 | 15 | 130 | 1.6 | 4.8 | 0.00 | 0.00 | 0.00 | 79 | 1017.9 |
| 20260506150659 | 14 | 130 | 0.0 | 3.2 | 0.00 | 0.00 | 0.00 | 79 | 1017.9 |
| 20260506150158 | 14 | 130 | 0.0 | 3.2 | 0.00 | 0.00 | 0.00 | 79 | 1017.9 |
| 20260506145657 | 14 | 131 | 1.6 | 3.2 | 0.00 | 0.00 | 0.00 | 79 | 1017.8 |
| 20260506145203 | 13 | 131 | 1.6 | 3.2 | 0.00 | 0.00 | 0.00 | 80 | 1017.8 |
| 20260506145158 | 13 | 131 | 1.6 | 3.2 | 0.00 | 0.00 | 0.00 | 80 | 1017.8 |
| 20260506144158 | 13 | 131 | 1.6 | 4.8 | 0.00 | 0.00 | 0.00 | 80 | 1017.9 |
| 20260506143657 | 13 | 131 | 1.6 | 4.8 | 0.00 | 0.00 | 0.00 | 81 | 1017.8 |
| 20260506143202 | 12 | 133 | 0.0 | 3.2 | 0.00 | 0.00 | 0.00 | 82 | 1017.8 |
| 20260506143156 | 13 | 131 | 0.0 | 4.8 | 0.00 | 0.00 | 0.00 | 81 | 1017.7 |
| 20260506142658 | 13 | 131 | 1.6 | 4.8 | 0.00 | 0.00 | 0.00 | 81 | 1017.8 |
| 20260506141657 | 12 | 131 | 3.2 | 3.2 | 0.00 | 0.00 | 0.00 | 82 | 1017.8 |
| 20260506141201 | 12 | 131 | 0.0 | 3.2 | 0.00 | 0.00 | 0.00 | 83 | 1017.6 |
| 20260506141156 | 12 | 131 | 1.6 | 3.2 | 0.00 | 0.00 | 0.00 | 83 | 1017.7 |
| 20260506140810 | 12 | 203 | 1.6 | 4.8 | 0.00 | 0.00 | 0.00 | 83 | 1017.6 |
| 20260506140313 | 12 | 247 | 3.2 | 4.8 | 0.00 | 0.00 | 0.00 | 84 | 1017.6 |
| 20260506135202 | 11 | 247 | 1.6 | 4.8 | 0.00 | 0.00 | 0.00 | 84 | 1017.7 |
| 20260506135156 | 12 | 247 | 1.6 | 4.8 | 0.00 | 0.00 | 0.00 | 84 | 1017.6 |
| 20260506134812 | 11 | 247 | 0.0 | 0.0 | 0.00 | 0.00 | 0.00 | 84 | 1017.6 |
| 20260506133656 | 11 | 247 | 0.0 | 0.0 | 0.00 | 0.00 | 0.00 | 84 | 1017.6 |
| 20260506133154 | 11 | 247 | 0.0 | 0.0 | 0.00 | 0.00 | 0.00 | 84 | 1017.5 |
| 20260506132654 | 11 | 247 | 0.0 | 0.0 | 0.00 | 0.00 | 0.00 | 84 | 1017.3 |
| 20260506132157 | 11 | 247 | 0.0 | 0.0 | 0.00 | 0.00 | 0.00 | 84 | 1017.2 |
| 20260506131655 | 11 | 247 | 0.0 | 0.0 | 0.00 | 0.00 | 0.00 | 84 | 1017.1 |
| 20260506131159 | 11 | 247 | 0.0 | 0.0 | 0.00 | 0.00 | 0.00 | 84 | 1017.0 |
| 20260506131153 | 11 | 247 | 0.0 | 0.0 | 0.00 | 0.00 | 0.00 | 84 | 1017.1 |
| 20260506130154 | 11 | 247 | 0.0 | 0.0 | 0.00 | 0.00 | 0.00 | 84 | 1016.9 |
| 20260506125653 | 11 | 247 | 0.0 | 0.0 | 0.00 | 0.00 | 0.00 | 84 | 1016.9 |
| 20260506125159 | 11 | 247 | 0.0 | 0.0 | 0.00 | 0.00 | 0.00 | 84 | 1016.9 |
| 20260506125154 | 11 | 247 | 0.0 | 0.0 | 0.00 | 0.00 | 0.00 | 84 | 1017.0 |
| 20260506124153 | 11 | 247 | 0.0 | 3.2 | 0.00 | 0.00 | 0.00 | 84 | 1016.9 |
| 20260506123652 | 11 | 247 | 1.6 | 3.2 | 0.00 | 0.00 | 0.00 | 84 | 1016.9 |
| 20260506123153 | 11 | 247 | 0.0 | 3.2 | 0.00 | 0.00 | 0.00 | 84 | 1016.8 |
| 20260506122652 | 11 | 247 | 0.0 | 3.2 | 0.00 | 0.00 | 0.00 | 84 | 1016.7 |
| 20260506122153 | 11 | 247 | 0.0 | 1.6 | 0.00 | 0.00 | 0.00 | 84 | 1016.7 |
| 20260506121650 | 11 | 247 | 0.0 | 1.6 | 0.00 | 0.00 | 0.00 | 83 | 1016.7 |
| 20260506121158 | 12 | 247 | 0.0 | 3.2 | 0.00 | 0.00 | 0.00 | 84 | 1016.6 |
| 20260506121153 | 11 | 247 | 0.0 | 0.0 | 0.00 | 0.00 | 0.00 | 83 | 1016.7 |
| 20260506120152 | 12 | 247 | 0.0 | 3.2 | 0.00 | 0.00 | 0.00 | 84 | 1016.7 |
| 20260506115652 | 12 | 247 | 1.6 | 3.2 | 0.00 | 0.00 | 0.00 | 84 | 1016.6 |
| 20260506115155 | 12 | 247 | 0.0 | 0.0 | 0.00 | 0.00 | 0.00 | 84 | 1016.6 |
| 20260506115151 | 12 | 247 | 1.6 | 3.2 | 0.00 | 0.00 | 0.00 | 84 | 1016.8 |
| 20260506114152 | 12 | 247 | 0.0 | 0.0 | 0.00 | 0.00 | 0.00 | 84 | 1016.6 |
| 20260506113649 | 12 | 247 | 0.0 | 0.0 | 0.00 | 0.00 | 0.00 | 85 | 1016.6 |
| 20260506113150 | 12 | 247 | 0.0 | 0.0 | 0.00 | 0.00 | 0.00 | 85 | 1016.6 |
| 20260506112656 | 12 | 247 | 0.0 | 0.0 | 0.00 | 0.00 | 0.00 | 85 | 1016.6 |
| 20260506112652 | 12 | 247 | 0.0 | 0.0 | 0.00 | 0.00 | 0.00 | 85 | 1016.6 |
| 20260506111649 | 12 | 247 | 0.0 | 0.0 | 0.00 | 0.00 | 0.00 | 84 | 1016.6 |
| 20260506111150 | 12 | 247 | 0.0 | 0.0 | 0.00 | 0.00 | 0.00 | 84 | 1016.6 |
| 20260506110649 | 12 | 247 | 0.0 | 0.0 | 0.00 | 0.00 | 0.00 | 84 | 1016.6 |
| 20260506110150 | 12 | 247 | 0.0 | 0.0 | 0.00 | 0.00 | 0.00 | 84 | 1016.6 |
| 20260506105649 | 12 | 247 | 0.0 | 0.0 | 0.00 | 0.00 | 0.00 | 84 | 1016.6 |
| 20260506105150 | 12 | 247 | 0.0 | 0.0 | 0.00 | 0.00 | 0.00 | 84 | 1016.6 |
| 20260506104650 | 12 | 247 | 0.0 | 0.0 | 0.00 | 0.00 | 0.00 | 84 | 1016.6 |
| 20260506104150 | 12 | 247 | 0.0 | 0.0 | 0.00 | 0.00 | 0.00 | 84 | 1016.7 |
| 20260506103650 | 12 | 247 | 0.0 | 0.0 | 0.00 | 0.00 | 0.00 | 83 | 1016.6 |
| 20260506103148 | 12 | 247 | 0.0 | 0.0 | 0.00 | 0.00 | 0.00 | 83 | 1016.6 |
| 20260506102654 | 12 | 247 | 0.0 | 0.0 | 0.00 | 0.00 | 0.00 | 83 | 1016.6 |
| 20260506102649 | 12 | 247 | 0.0 | 0.0 | 0.00 | 0.00 | 0.00 | 83 | 1016.7 |
| 20260506101648 | 12 | 247 | 0.0 | 0.0 | 0.00 | 0.00 | 0.00 | 82 | 1016.6 |
| 20260506101149 | 12 | 247 | 0.0 | 0.0 | 0.00 | 0.00 | 0.00 | 82 | 1016.6 |
| 20260506100649 | 13 | 247 | 0.0 | 0.0 | 0.00 | 0.00 | 0.00 | 82 | 1016.6 |
| 20260506100147 | 12 | 247 | 0.0 | 0.0 | 0.00 | 0.00 | 0.00 | 83 | 1016.5 |
| 20260506095647 | 12 | 247 | 0.0 | 0.0 | 0.00 | 0.00 | 0.00 | 83 | 1016.6 |
| 20260506095148 | 12 | 247 | 0.0 | 0.0 | 0.00 | 0.00 | 0.00 | 83 | 1016.6 |
| 20260506094646 | 12 | 247 | 0.0 | 0.0 | 0.00 | 0.00 | 0.00 | 83 | 1016.6 |
| 20260506094148 | 12 | 247 | 0.0 | 0.0 | 0.00 | 0.00 | 0.00 | 83 | 1016.7 |
| 20260506093648 | 12 | 247 | 0.0 | 0.0 | 0.00 | 0.00 | 0.00 | 83 | 1016.6 |
| 20260506093148 | 12 | 247 | 0.0 | 0.0 | 0.00 | 0.00 | 0.00 | 83 | 1016.7 |
| 20260506092645 | 12 | 247 | 0.0 | 0.0 | 0.00 | 0.00 | 0.00 | 82 | 1016.7 |
| 20260506092152 | 13 | 247 | 0.0 | 0.0 | 0.00 | 0.00 | 0.00 | 82 | 1016.8 |
| 20260506092147 | 12 | 247 | 0.0 | 0.0 | 0.00 | 0.00 | 0.00 | 82 | 1016.7 |
| 20260506091146 | 13 | 247 | 0.0 | 0.0 | 0.00 | 0.00 | 0.00 | 82 | 1016.8 |
| 20260506090646 | 13 | 247 | 0.0 | 0.0 | 0.00 | 0.00 | 0.00 | 83 | 1016.8 |
| 20260506090148 | 13 | 247 | 0.0 | 0.0 | 0.00 | 0.00 | 0.00 | 83 | 1016.8 |
| 20260506085646 | 13 | 247 | 0.0 | 0.0 | 0.00 | 0.00 | 0.00 | 84 | 1016.8 |
| 20260506085145 | 13 | 247 | 0.0 | 0.0 | 0.00 | 0.00 | 0.00 | 84 | 1016.9 |
| 20260506084646 | 13 | 247 | 0.0 | 0.0 | 0.00 | 0.00 | 0.00 | 84 | 1016.9 |
| 20260506084145 | 13 | 247 | 0.0 | 0.0 | 0.00 | 0.00 | 0.00 | 84 | 1016.9 |
| 20260506083645 | 13 | 247 | 0.0 | 0.0 | 0.00 | 0.00 | 0.00 | 85 | 1017.0 |
| 20260506083145 | 13 | 247 | 0.0 | 0.0 | 0.00 | 0.00 | 0.00 | 85 | 1017.0 |
| 20260506082646 | 13 | 247 | 0.0 | 0.0 | 0.00 | 0.00 | 0.00 | 85 | 1017.0 |
| 20260506082146 | 13 | 247 | 0.0 | 0.0 | 0.00 | 0.00 | 0.00 | 85 | 1017.0 |
| 20260506081642 | 13 | 247 | 0.0 | 0.0 | 0.00 | 0.00 | 0.00 | 85 | 1017.1 |
| 20260506081148 | 13 | 247 | 0.0 | 0.0 | 0.00 | 0.00 | 0.00 | 85 | 1017.0 |
| 20260506081144 | 13 | 247 | 0.0 | 0.0 | 0.00 | 0.00 | 0.00 | 85 | 1017.1 |
| 20260506080144 | 13 | 247 | 0.0 | 0.0 | 0.00 | 0.00 | 0.00 | 85 | 1017.1 |
| 20260506073143 | 13 | 247 | 0.0 | 0.0 | 0.00 | 0.00 | 0.00 | 84 | 1017.2 |
| 20260506072645 | 13 | 247 | 0.0 | 0.0 | 0.00 | 0.00 | 0.00 | 84 | 1017.1 |
| 20260506072142 | 13 | 247 | 0.0 | 0.0 | 0.00 | 0.00 | 0.00 | 84 | 1017.1 |
| 20260506071642 | 13 | 247 | 0.0 | 0.0 | 0.00 | 0.00 | 0.00 | 84 | 1017.1 |
| 20260506071143 | 13 | 247 | 0.0 | 0.0 | 0.00 | 0.00 | 0.00 | 84 | 1017.1 |
| 20260506070643 | 13 | 247 | 0.0 | 0.0 | 0.00 | 0.00 | 0.00 | 84 | 1017.2 |
| 20260506070146 | 14 | 247 | 0.0 | 0.0 | 0.00 | 0.00 | 0.00 | 84 | 1017.1 |
| 20260506070141 | 14 | 247 | 0.0 | 0.0 | 0.00 | 0.00 | 0.00 | 84 | 1017.1 |
| 20260506062142 | 14 | 247 | 0.0 | 0.0 | 0.00 | 0.00 | 0.00 | 83 | 1016.7 |
| 20260506061640 | 14 | 247 | 0.0 | 0.0 | 0.00 | 0.00 | 0.00 | 83 | 1016.8 |
| 20260506061141 | 14 | 247 | 0.0 | 0.0 | 0.00 | 0.00 | 0.00 | 83 | 1016.7 |
| 20260506060640 | 15 | 247 | 0.0 | 0.0 | 0.00 | 0.00 | 0.00 | 83 | 1016.7 |
| 20260506060140 | 15 | 247 | 0.0 | 0.0 | 0.00 | 0.00 | 0.00 | 83 | 1016.7 |
| 20260506051139 | 15 | 247 | 0.0 | 0.0 | 0.00 | 0.00 | 0.00 | 79 | 1016.3 |
| 20260506050637 | 15 | 247 | 0.0 | 0.0 | 0.00 | 0.00 | 0.00 | 79 | 1016.2 |
| 20260506050138 | 15 | 247 | 0.0 | 0.0 | 0.00 | 0.00 | 0.00 | 79 | 1016.1 |